Location: Peterborough
(44.3091°N, 78.3197°W)
Time: 19:01:18
(UTC-04:00)

A-11 Canister half - Pass Details

Date: 24 March 2023
Orbit: 1526 x 1682 km, 47.3° (Epoch: 06 June)

Event Time Altitude Azimuth Distance (km) Brightness Sun altitude
Rises 23:04:16 0° 293° (WNW) 4,849 12.5 -35.0°
Reaches altitude 10° 23:07:27 10° 291° (WNW) 3,840 11.7 -35.4°
Enters shadow 23:16:37 68° 228° (SW) 1,679 9.0 -36.5°
